カタログに戻る

STARLINK-35999

運用中通信VLEO
NORAD 66951·PAYLOAD·🇺🇸 United States

打ち上げ Dec 7, 2025 から Vandenberg Space Force Base

Loading…

次のパス (今後24時間)

TLE

最新Source: CelesTrak SupGP

元期: Sep 14, 2026, 21:10 UTC

1 66951C 25286AC  26257.88243056  .00014113  00000+0  41685-3 0  2571
2 66951  53.1583 196.0497 0001367  88.3634 285.4474 15.34392940    14

AllMySatでSTARLINK-35999をリアルタイム追跡

Download on the App Store